This is the latest recevied weather packets stored in our database for station/object KD4UFD. If no packets are shown the sender has not sent any weather packets the latest 10 day(s).
| Time | Temp. | Humidity | Pressure | Rain* | Wind** | Luminosity | Snow |
|---|---|---|---|---|---|---|---|
| 1778122605 | 16.11° C | 99% | 1013.1 hPa | 1.78 mm | - | 0 W/m² | - |
| 1778122302 | 16.11° C | 99% | 1013 hPa | 0 mm | - | 0 W/m² | - |
| 1778122000 | 16.11° C | 99% | 1012.3 hPa | 1.27 mm | - | 0 W/m² | - |
| 1778121697 | 16.11° C | 99% | 1012.3 hPa | 1.27 mm | - | 0 W/m² | - |
| 1778121392 | 16.11° C | 99% | 1012.6 hPa | 3.05 mm | - | 0 W/m² | - |
| 1778121090 | 16.11° C | 99% | 1013.1 hPa | 1.78 mm | - | 0 W/m² | - |
| 1778120787 | 16.11° C | 99% | 1012.5 hPa | 0 mm | - | 0 W/m² | - |
| 1778120482 | 16.11° C | 99% | 1012.3 hPa | 0 mm | - | 0 W/m² | - |
| 1778120179 | 16.11° C | 99% | 1012.3 hPa | 0 mm | - | 0 W/m² | - |
| 1778119875 | 16.11° C | 99% | 1012.7 hPa | 0 mm | - | 0 W/m² | - |
| 1778119574 | 16.11° C | 99% | 1012.9 hPa | 0 mm | - | 0 W/m² | - |
| 1778119269 | 16.11° C | 99% | 1012.7 hPa | 0 mm | - | 0 W/m² | - |
| 1778118968 | 16.67° C | 99% | 1012.4 hPa | 0 mm | - | 0 W/m² | - |
| 1778118664 | 16.67° C | 99% | 1012.4 hPa | 0 mm | - | 0 W/m² | - |
| 1778118361 | 16.67° C | 99% | 1012.5 hPa | 0 mm | - | 0 W/m² | - |
| 1778118051 | 16.67° C | 99% | 1012.1 hPa | 0 mm | - | 0 W/m² | - |
| 1778117748 | 17.78° C | 99% | 1012.3 hPa | 0 mm | - | 0 W/m² | - |
| 1778117445 | 17.78° C | 99% | 1012.1 hPa | 0 mm | - | 0 W/m² | - |
| 1778117143 | 17.78° C | 99% | 1012.1 hPa | 0 mm | - | 0 W/m² | - |
| 1778116838 | 17.78° C | 99% | 1012.2 hPa | 0 mm | - | 0 W/m² | - |
| 1778116536 | 17.78° C | 99% | 1012.1 hPa | 0 mm | - | 0 W/m² | - |
| 1778116232 | 17.78° C | 99% | 1012.4 hPa | 1.27 mm | - | 0 W/m² | - |
| 1778115927 | 17.78° C | 99% | 1012.5 hPa | 1.27 mm | - | 0 W/m² | - |
| 1778115624 | 18.33° C | 99% | 1012.3 hPa | 0 mm | - | 0 W/m² | - |
| 1778115321 | 18.33° C | 99% | 1012.4 hPa | 0 mm | - | 0 W/m² | - |
* Rain latest hour (hover to see other rain measurements)
** Current wind speed in m/s (hover to see current wind gust speed)